Dewpoint
54 54 54 54 55 55 56 57 57 57 58 58 58 58 59 60 58 53 31 35 43 54 50 49 59 54 50 48 50 57 46 47 48 54 54 57 57 57 58 57 58 59 58 61 66
54 54 54 54 54 55 55 56 56 57 57 57 57 58 59 60 49 33 38 50 58 55 40 38 38 43 43 42 45 47 46 45 48 53 56 57 54 56 57 57 60 59 60 63 66
54 54 54 54 54 54 55 55 56 56 56 57 57 58 59 59 31 31 54 54 57 52 40 39 38 38 36 40 43 47 44 46 47 52 58 58 57 60 56 56 60 59 63 65 65
54 53 54 54 54 54 55 55 55 56 56 56 57 58 59 51 26 33 56 56 54 47 38 35 37 37 38 40 43 43 45 47 55 58 58 57 59 57 56 56 61 63 64 65 65
53 53 53 53 54 54 54 54 55 55 55 56 57 58 48 23 23 32 32 26 49 41 37 36 35 35 33 37 41 43 47 50 56 57 58 58 57 57 57 59 63 65 65 65 65
52 53 53 53 53 53 54 53 54 55 55 56 57 59 39 17 23 28 26 22 23 30 30 33 33 35 34 33 36 43 48 49 54 55 56 56 58 57 57 61 62 64 64 65 64
52 52 53 53 53 53 53 53 54 54 55 56 58 57 34 15 21 26 29 20 22 23 21 29 35 34 34 33 36 48 46 51 55 56 57 57 55 55 59 61 62 63 64 64 64
52 52 52 53 52 52 52 53 54 54 55 56 58 50 17 17 25 29 31 18 16 21 24 27 35 34 34 35 43 46 46 43 50 55 57 52 48 56 59 60 60 61 62 62 63
52 52 52 52 52 52 52 53 54 55 56 57 48 36 15 25 24 26 27 15 16 19 24 31 35 35 35 34 42 40 42 43 47 53 55 52 50 56 57 59 59 59 60 61 61
51 52 52 52 52 51 51 52 52 54 54 55 49 27 19 17 24 24 20 17 19 18 26 32 34 32 33 32 32 40 41 42 46 49 51 50 49 55 57 55 57 59 59 59 59
51 52 51 51 51 51 50 42 31 32 43 19 19 10 12 19 21 21 15 16 16 24 24 28 30 30 31 32 32 31 33 41 42 48 47 47 48 54 57 56 55 55 56 57 58
51 51 51 51 51 50 49 29 33 31 23 27 30 25 26 24 24 22 15 11 14 21 28 28 29 30 30 32 32 32 31 34 34 45 47 46 46 52 56 56 56 55 55 55 55
51 51 51 50 51 48 42 31 39 38 22 24 30 29 29 28 25 22 14 14 15 20 25 27 30 29 28 30 32 32 31 30 29 44 45 47 45 49 55 56 56 55 55 55 55
52 51 51 50 45 48 42 43 45 38 22 21 28 25 27 23 19 21 14 11 22 19 26 28 29 28 26 25 32 30 33 30 40 41 37 45 32 44 50 53 54 54 53 54 55
51 51 50 50 46 43 43 46 42 31 2 25 27 29 25 20 12 13 10 19 20 27 28 27 26 22 23 20 32 31 32 28 38 33 37 40 34 32 48 48 50 51 52 54 55
51 50 51 48 48 45 47 45 34 22 14 26 23 24 17 13 11 13 13 18 21 23 23 26 23 22 21 20 27 29 24 22 22 21 23 29 34 26 37 46 48 50 52 53 56
50 50 50 49 37 48 46 33 22 12 25 20 19 14 11 9 11 10 15 16 18 20 23 22 21 18 18 16 20 24 22 20 18 16 16 25 30 28 43 47 48 50 51 53 57
50 49 49 49 49 48 37 29 16 20 26 26 10 7 6 9 6 10 14 14 19 19 15 14 19 14 13 16 13 18 19 16 17 15 17 32 26 33 47 51 53 51 52 55 56
50 48 48 47 49 47 32 26 17 24 29 22 20 4 5 10 11 14 13 15 18 19 21 14 13 15 15 15 16 18 18 21 19 20 18 24 37 39 47 49 53 53 54 55 57
48 47 44 49 49 40 30 25 28 33 28 22 19 14 10 10 11 12 13 15 16 18 19 14 13 13 25 28 30 15 19 15 17 13 12 25 35 31 40 44 51 53 54 55 58
49 41 45 47 43 35 27 29 32 34 28 17 15 3 14 15 13 10 12 14 16 16 16 14 12 12 22 30 28 26 26 20 20 19 16 20 26 39 40 45 49 53 54 54 57
47 40 46 42 32 33 30 32 29 23 22 20 19 15 12 19 19 12 9 12 15 15 15 15 13 9 13 32 36 33 31 23 20 20 29 27 27 47 51 51 54 52 54 60 61
44 43 44 37 24 27 30 29 27 26 27 25 20 21 22 22 22 18 15 11 15 15 15 19 14 10 20 29 32 31 33 32 28 30 30 27 27 50 53 53 55 55 56 59 60
48 39 39 36 34 31 31 31 30 31 29 27 24 26 24 26 21 23 13 30 12 14 24 27 26 14 12 20 30 30 33 32 30 26 29 30 27 43 50 52 52 54 57 59 56
51 49 47 35 36 35 32 32 32 31 30 37 39 37 40 34 35 31 32 33 36 40 31 25 22 30 32 33 33 32 31 33 30 29 26 26 29 34 47 50 51 54 57 57 55
50 49 51 46 45 46 44 42 38 36 31 40 40 42 40 37 35 32 33 32 31 34 34 35 30 34 34 36 35 31 32 33 34 33 32 36 33 45 50 50 51 53 56 54 58
41 51 50 44 46 45 42 39 41 34 40 43 43 42 39 41 42 40 41 36 36 32 34 35 34 30 31 37 32 27 29 33 33 34 38 34 36 49 50 49 49 53 56 58 59
Wind_Speed
13 14 14 14 14 15 16 16 16 17 18 20 20 21 21 23 21 2 7 6 6 9 5 3 1 2 4 2 3 3 2 3 4 9 4 12 6 4 8 12 4 2 9 14 25
14 14 15 15 16 16 16 16 16 17 18 19 21 20 21 22 7 10 10 2 13 11 4 6 8 9 3 4 6 5 3 7 9 10 10 15 14 12 7 11 6 16 22 24 23
15 15 16 17 16 17 17 17 17 17 17 19 20 21 20 15 7 1 4 9 14 13 4 3 4 1 4 6 6 6 6 7 6 7 16 12 8 3 18 6 9 22 22 23 21
15 16 16 17 17 17 17 17 17 18 18 17 19 21 25 2 3 3 2 5 8 8 3 4 5 3 4 6 7 4 9 8 9 13 12 14 9 5 13 4 16 26 30 25 22
16 16 17 17 18 17 17 16 17 18 18 17 17 19 5 3 10 2 6 13 3 4 2 1 5 7 7 4 4 5 3 6 13 14 14 15 8 6 15 12 21 21 23 24 24
16 16 17 18 18 17 17 17 17 18 16 15 15 16 2 10 3 4 14 11 5 4 4 1 3 4 2 3 1 3 15 12 10 12 9 11 6 5 3 18 20 22 23 22 23
17 17 18 19 19 18 18 17 18 17 15 12 11 5 1 18 1 17 10 7 4 0 5 3 3 1 4 5 5 13 14 12 10 9 5 13 3 3 17 19 22 21 22 19 19
17 18 19 20 20 20 20 21 20 17 13 9 5 1 8 5 8 16 6 8 5 3 4 8 3 1 2 3 5 6 6 9 6 9 9 2 6 4 18 20 18 17 18 20 20
17 18 20 21 21 21 21 24 19 11 6 3 2 2 11 14 6 6 7 7 4 1 4 0 3 3 4 4 5 5 9 6 7 11 7 3 3 11 16 19 19 19 18 19 18
17 18 19 21 21 21 25 16 2 4 2 2 2 4 7 2 4 7 1 2 1 6 4 5 5 2 4 6 1 7 6 7 11 14 9 10 9 13 19 18 21 22 20 19 20
18 19 19 20 20 17 13 3 1 1 3 9 5 4 6 10 5 2 1 6 3 6 3 4 2 6 2 3 7 3 8 14 8 9 12 20 3 16 20 18 19 20 21 23 24
19 19 20 20 19 16 3 4 3 0 7 15 15 13 8 1 6 5 2 5 4 4 3 2 7 5 3 1 1 2 6 13 8 12 21 9 11 12 21 30 25 22 22 25 23
19 20 21 21 22 0 2 3 6 3 3 8 7 8 6 11 8 7 10 7 4 7 8 5 4 2 5 4 2 4 7 2 1 9 0 2 6 10 15 17 18 18 17 18 23
20 20 20 25 2 4 3 1 11 8 3 5 4 6 8 7 4 8 9 8 4 16 11 7 3 4 5 5 3 7 2 2 11 15 11 5 8 10 19 23 23 24 20 22 20
20 19 17 11 6 2 1 12 2 1 3 1 3 1 3 10 3 5 6 5 11 10 7 6 4 2 9 4 6 6 2 1 10 7 7 5 2 11 7 21 30 25 25 23 22
20 18 13 0 4 8 11 8 3 3 4 2 4 6 6 2 2 2 4 3 4 5 1 4 2 5 5 2 7 5 2 6 7 3 5 7 8 18 6 17 20 17 21 20 18
23 16 6 2 2 4 9 3 2 3 6 2 3 6 7 6 5 2 8 8 6 6 2 4 6 5 4 5 2 3 4 3 1 1 7 2 8 14 9 12 12 15 23 23 17
27 14 6 8 5 5 2 4 3 3 6 5 2 6 7 5 5 3 6 10 2 6 6 5 6 6 3 5 3 1 4 5 5 3 4 5 6 5 8 14 15 14 22 17 16
21 1 3 6 18 5 5 3 4 4 4 11 5 4 2 2 4 5 8 13 12 11 7 7 5 3 4 2 5 6 5 4 6 2 1 2 4 10 6 11 8 8 13 6 15
6 3 3 2 15 3 4 4 4 4 7 6 5 4 2 4 6 6 8 8 11 15 9 6 2 1 2 3 7 4 10 3 0 2 5 3 3 6 8 10 11 6 1 8 16
2 2 9 3 3 5 6 7 4 6 4 4 2 5 4 2 5 7 7 7 14 13 8 6 3 3 2 1 1 1 3 5 6 4 5 3 5 8 10 13 10 5 4 4 12
2 3 3 4 3 2 4 4 2 4 4 8 4 9 7 8 3 8 16 15 16 18 16 11 4 4 3 3 2 3 4 5 4 5 1 3 5 4 7 7 4 7 4 8 14
3 3 1 3 4 3 3 3 4 7 7 3 5 10 5 4 5 13 10 11 16 18 18 14 4 4 4 2 2 2 2 5 8 4 7 5 5 5 3 3 5 7 8 5 14
2 3 1 2 1 2 2 5 4 5 11 8 9 4 3 7 11 6 3 2 18 21 15 12 6 8 18 11 6 6 8 9 4 5 8 8 5 8 10 9 8 10 8 4 6
4 1 1 4 6 7 2 6 14 6 5 3 3 2 4 6 6 8 7 4 4 10 11 12 10 6 2 4 5 4 7 8 7 4 9 9 12 7 17 18 16 12 6 6 4
3 2 4 2 2 2 5 5 9 7 7 6 2 14 5 6 6 3 8 5 6 4 6 3 8 7 5 1 4 1 3 4 7 2 7 4 6 4 7 10 11 13 8 4 2
4 2 1 3 1 2 5 4 8 6 9 2 7 9 8 7 9 7 4 5 8 11 7 6 10 4 7 4 4 1 5 11 5 7 7 8 4 12 13 18 15 13 11 8 7
Wind_Direction
354 350 346 342 337 335 333 334 333 332 330 327 324 324 327 327 323 129 286 226 178 160 173 3 232 171 126 166 207 148 86 193 233 180 195 152 127 145 105 132 64 148 134 143 146
353 351 347 342 337 333 329 331 330 329 327 325 324 326 328 333 330 299 283 227 140 153 177 211 289 151 163 213 191 161 178 211 213 187 175 158 142 153 118 130 66 82 104 129 140
350 348 347 344 337 333 328 329 327 327 326 325 325 325 327 328 327 208 17 142 186 196 223 214 290 229 205 167 186 181 232 198 203 161 142 155 140 130 143 149 184 150 143 143 149
349 346 342 343 338 331 327 325 324 323 323 324 326 325 323 332 254 134 87 121 168 159 174 134 233 223 185 192 188 187 244 174 121 134 135 158 137 140 167 184 164 156 152 152 167
347 344 342 338 337 329 324 321 320 319 320 323 327 330 359 333 253 311 15 352 230 146 204 337 360 12 0 322 313 176 90 68 116 129 137 137 169 187 205 135 136 144 157 167 179
343 341 340 337 336 329 322 318 314 311 312 318 327 326 23 280 251 45 339 328 328 16 342 282 298 322 295 325 19 95 99 95 109 130 137 147 163 129 123 136 140 153 172 180 187
340 339 339 337 334 329 321 314 310 307 308 315 327 355 314 248 329 320 314 293 277 219 302 229 222 12 337 353 336 133 106 95 105 128 129 121 156 196 148 149 154 175 179 187 197
339 338 338 336 334 329 321 312 310 302 303 305 321 69 257 262 310 296 287 289 262 202 230 265 222 91 52 339 33 82 84 158 167 143 168 102 199 165 155 154 168 180 190 195 200
335 335 336 335 334 329 320 312 304 291 272 309 25 42 269 311 278 292 209 249 301 309 269 67 82 60 50 96 75 29 185 201 171 197 170 184 188 187 169 167 176 192 204 207 216
333 334 331 335 335 331 322 309 326 88 103 182 296 322 268 306 317 309 222 186 67 334 50 53 50 46 64 60 155 199 186 230 214 201 201 196 226 185 181 180 189 196 206 212 221
330 330 330 332 333 334 345 81 69 279 214 211 202 235 292 316 302 321 165 122 88 52 44 20 95 226 260 196 165 212 215 210 241 207 195 224 184 200 192 205 201 202 209 217 221
329 329 329 329 326 319 292 131 94 113 301 244 238 259 278 352 302 287 176 150 137 225 21 351 236 224 257 172 199 235 187 219 239 199 195 219 231 218 199 212 210 206 208 217 228
324 329 330 327 322 323 227 188 9 349 279 287 208 227 225 165 218 250 170 140 161 181 210 214 238 207 292 345 338 213 230 214 219 162 183 120 256 213 224 223 226 229 223 223 216
324 326 328 330 311 333 244 261 332 178 327 271 231 251 161 162 240 211 188 145 170 200 186 226 259 291 358 308 191 301 199 113 135 153 202 180 268 238 214 219 223 230 226 223 216
328 328 329 333 295 218 145 333 10 108 317 176 186 77 165 167 149 207 191 118 173 161 162 201 157 31 324 269 180 253 4 326 184 155 128 216 213 263 213 226 230 223 225 222 209
325 323 327 28 231 246 317 328 107 47 256 2 142 154 151 183 137 89 137 92 143 148 51 213 237 259 231 274 219 244 159 76 82 122 225 209 201 281 230 247 252 221 221 221 198
323 308 270 251 224 322 323 122 44 205 334 28 205 167 176 156 203 123 154 167 163 149 201 330 272 262 223 310 19 131 78 322 318 213 243 89 176 254 290 277 278 239 216 216 187
324 306 215 222 263 330 132 83 230 274 288 316 336 137 171 141 202 191 155 176 125 107 126 180 212 209 174 186 221 93 186 188 237 223 290 130 227 260 262 299 307 261 210 204 183
324 318 249 257 219 304 121 165 230 220 322 327 319 124 116 164 188 182 187 199 197 180 172 173 251 301 248 237 170 189 210 161 118 52 288 247 288 291 283 304 313 224 204 128 95
329 329 302 93 156 137 118 229 242 229 332 1 54 29 156 207 179 185 185 205 206 197 181 190 240 281 231 93 60 192 148 156 112 215 246 282 268 246 263 259 268 256 197 86 96
343 78 350 107 167 78 194 224 273 261 294 330 302 300 231 244 214 190 214 232 197 197 169 150 179 231 39 70 109 284 162 75 113 123 204 224 245 219 250 237 251 278 267 75 89
13 93 349 149 109 83 180 205 255 285 255 262 264 223 225 176 232 225 215 220 193 162 182 188 156 245 226 289 168 230 172 129 184 215 154 176 261 233 274 271 250 261 289 55 71
68 95 92 347 163 208 272 275 245 254 260 243 264 226 194 236 223 225 221 223 160 167 177 168 213 243 343 20 24 280 88 108 113 109 177 184 232 333 322 289 271 287 297 12 77
65 111 50 60 110 121 7 295 256 241 263 233 257 287 246 259 224 255 256 154 184 187 170 148 142 186 226 218 161 193 177 159 152 170 175 226 248 235 219 212 241 263 277 346 21
29 72 177 200 253 242 195 256 261 272 248 225 281 197 330 286 211 216 217 146 75 142 151 173 200 177 223 183 156 208 202 181 196 208 197 231 208 279 214 204 222 230 246 283 329
41 27 358 254 273 237 199 235 236 233 218 203 358 338 350 231 265 256 181 190 161 143 127 53 177 129 147 220 139 181 223 183 226 240 269 260 218 292 173 173 198 211 183 216 258
347 342 131 247 206 213 215 244 274 305 214 164 64 14 1 338 316 356 227 112 166 133 127 120 134 128 165 16 71 274 213 215 198 186 186 195 207 166 168 192 198 184 180 185 202